Content
SEND FEEDBACK

Daily
Averages
Monthly
Summary
United States of America

ST. LOUIS, MISSOURI


Home > North America > United States > Missouri
Elevation: 535 feet     Latitude: 38 45N     Longitude: 090 22W

WEATHER
 
SELECT A DAY
Number of Records: 198,984;   Date Range: 1/1/95 - 9/30/14
 
SHARE

PRINT THIS DATA

[ ← Previous Day ]
WEATHER ALMANAC - JANUARY 29, 2013
[ Next Day → ]
[ °C ]   °F
Weather ElementAverageHighLow
Temperature59.8 °F68 °F (9:54 am)53.1 °F (9:54 pm)
Dewpoint55.4 °F60.1 °F (12:54 pm)51.8 °F (9:25 pm)
Humidity86.1 %100 % (7:05 pm)70 % (9:54 am)
Barometer29.57 in29.78 in (1:54 am)29.43 in (11:54 pm)
Wind Speed8.7 mph27.6 mph (4:16 pm)
Wind Gust36.8 mph (4:10 pm)
Weather ElementAverage
Visibility6 mi
Wind DirectionSSW (198.7 °)

Weather ElementTotal
Precipitation3.15 in
Heating Degree Days4.5 (Base 65)
Growing Degree Days10.6 (Base 50)
Averaged from 38 records on January 29, 2013
WEATHER CONDITIONS BREAKOUT
WIND DIRECTION BREAKOUT
WEATHER BY HOUR - JANUARY 29, 2013
[ °C ]   °F
Local TimeTemperatureDewpointHumidityBarometerVisibilityWind DirectionWind SpeedGust SpeedPrecipitationEventsConditions
1:54 AM66.0 °F57.9 °F75 %29.78 in10.0 miSouth (190°)8.1 mphClear
2:54 AM66.0 °F57.9 °F75 %29.76 in10.0 miVariable5.8 mph17.3 mphClear
3:54 AM66.0 °F57.9 °F75 %29.75 in10.0 miSouth (190°)9.2 mphClear
4:54 AM66.0 °F57.9 °F75 %29.74 in10.0 miSSW (200°)9.2 mph16.1 mphMostly Cloudy
5:54 AM66.0 °F57.9 °F75 %29.73 in10.0 miVariable4.6 mphMostly Cloudy
6:54 AM66.0 °F57.9 °F75 %29.73 in10.0 miSouth (180°)8.1 mphMostly Cloudy
7:54 AM66.0 °F57.9 °F75 %29.72 in10.0 miSSW (210°)8.1 mphOvercast
8:54 AM66.9 °F57.9 °F73 %29.70 in10.0 miSouth (180°)10.4 mphMostly Cloudy
9:54 AM68.0 °F57.9 °F70 %29.69 in10.0 miSSW (200°)9.2 mph18.4 mphMostly Cloudy
10:54 AM68.0 °F57.9 °F70 %29.67 in10.0 miSouth (190°)15.0 mph29.9 mphOvercast
11:54 AM64.9 °F59.0 °F81 %29.64 in5.0 miSouth (180°)9.2 mph19.6 mph0.00 inRainLight Rain
12:54 PM64.0 °F60.1 °F87 %29.57 in5.0 miSouth (170°)8.1 mph0.01 inRainLight Rain
1:54 PM66.9 °F59.0 °F76 %29.50 in10.0 miSouth (180°)13.8 mph24.2 mph0.00 inOvercast
2:54 PM66.9 °F59.0 °F76 %29.49 in9.0 miSouth (180°)10.4 mph0.00 inRainLight Rain
3:49 PM68.0 °F59.0 °F73 %29.45 in10.0 miSouth (170°)16.1 mph23.0 mph0.00 inRainLight Rain
3:54 PM68.0 °F57.9 °F70 %29.44 in10.0 miSouth (180°)12.7 mph23.0 mph0.00 inRainLight Rain
4:10 PM59.0 °F55.4 °F88 %29.49 in2.0 miNW (310°)24.2 mph36.8 mph0.08 inRainHeavy Rain
4:12 PM57.2 °F53.6 °F88 %29.49 in1.5 miNW (310°)23.0 mph36.8 mph0.10 inRainHeavy Rain
4:16 PM57.2 °F53.6 °F88 %29.49 in1.0 miNW (320°)27.6 mph35.7 mph0.13 inRainHeavy Rain
4:33 PM55.4 °F53.6 °F94 %29.51 in2.0 miNW (320°)10.4 mph25.3 mph0.29 inRainHeavy Rain
4:40 PM55.4 °F53.6 °F94 %29.52 in3.0 miNNW (330°)11.5 mph18.4 mph0.32 inRainRain
4:54 PM55.9 °F53.1 °F90 %29.53 in4.0 miWest (280°)8.1 mph0.36 inRainRain
5:03 PM55.4 °F53.6 °F94 %29.56 in2.5 miWest (270°)5.8 mph0.06 inRainHeavy Rain
5:12 PM55.4 °F53.6 °F94 %29.55 in3.0 miWest (280°)4.6 mph0.09 inRainRain
5:26 PM55.4 °F53.6 °F94 %29.55 in2.5 miWest (260°)3.5 mph0.15 inRainRain
5:54 PM55.0 °F53.1 °F93 %29.49 in5.0 miCalm0.23 inRainRain
6:54 PM55.0 °F53.1 °F93 %29.50 in5.0 miCalm0.12 inRainLight Rain
7:05 PM53.6 °F53.6 °F100 %29.54 in2.0 miWest (260°)6.9 mph0.06 inRainHeavy Rain
7:18 PM53.6 °F53.6 °F100 %29.52 in2.0 miWNW (300°)5.8 mph0.15 inRainHeavy Rain
7:28 PM55.4 °F53.6 °F94 %29.54 in3.0 miWest (270°)3.5 mph0.18 inRainRain
7:38 PM53.6 °F53.6 °F100 %29.54 in5.0 miWest (260°)5.8 mph0.20 inRainLight Rain
7:54 PM54.0 °F53.1 °F97 %29.53 in4.0 miWSW (250°)5.8 mph0.24 inRainRain
8:01 PM53.6 °F53.6 °F100 %29.55 in4.0 miWSW (240°)5.8 mph0.01 inRain-ThunderstormLight Thunderstorms and Rain
8:54 PM54.0 °F52.0 °F93 %29.54 in3.0 miWest (280°)4.6 mph0.21 inRain-ThunderstormThunderstorms and Rain
9:25 PM53.6 °F51.8 °F94 %29.51 in2.5 miCalm0.04 inRainLight Rain
9:54 PM53.1 °F52.0 °F96 %29.50 in3.0 miSSE (160°)3.5 mph0.06 inRainLight Rain
10:54 PM54.0 °F52.0 °F93 %29.44 in9.0 miESE (110°)5.8 mph0.06 inRainLight Rain
11:54 PM53.6 °F51.8 °F94 %29.43 in10.0 miSE (140°)6.9 mphRainLight Rain
Hourly data recorded from KSUS, located miles away from St. Louis, Missouri







STORIES FROM OUR PARTNERS